Regional Weather Roundup
Issued by NWS Jackson, KY

Home | Current Version | Previous Version | Text Only | Print | Product List | Glossary Off
Versions: 1 2 3 4 5 6 7 8 9 10 11 12 13 14 15 16 17 18 19 20 21 22 23 24 25 26 27 28 29 30 31 32 33 34 35 36 37 38 39 40 41 42 43 44 45 46 47 48 49 50

936
ASUS43 KJKL 120810
RWRJKL

EAST KENTUCKY HOURLY WEATHER ROUNDUP
NATIONAL WEATHER SERVICE JACKSON KY
300 AM EST FRI FEB 12 2016

NOTE: "FAIR" INDICATES FEW OR NO CLOUDS BELOW 12,000 FEET WITH
NO SIGNIFICANT WEATHER AND/OR OBSTRUCTIONS TO VISIBILITY.

* THESE REPORTS ARE NOT UNDER NWS QUALITY CONTROL AND MAY NOT
  REPORT WEATHER SUCH AS PRECIPITATION AND FOG.

KYZ079-080-083-085-087-088-110-112-115-119-120-120900
...EASTERN KENTUCKY...

CITY           SKY/WX    TMP DP  RH WIND       PRES   REMARKS
JACKSON        CLOUDY    21   9  59 CALM      30.18F
LONDON         CLOUDY    24  12  60 NE5       30.18F WCI  18
SOMERSET*      CLOUDY    25  14  63 CALM      30.20F
WILLIAMSBURG*  PTSUNNY   27  14  59 CALM      30.18F
MIDDLESBORO*   CLOUDY    28  21  75 CALM      30.18F
HARLAN APT*    CLOUDY    25  18  74 NE3       30.16F
HAZARD APT*    CLOUDY    19  10  68 CALM      30.19F
BLACK MTN*       N/A     19  16  86 SW8         N/A  WCI   9
BIG SANDY*     CLOUDY    18   9  67 E6        30.20F WCI  10
MOREHEAD APT*  CLOUDY    19   5  53 CALM      30.23F
$$

KYZ035-036-041-042-044-050-067-078-099-120900
...CENTRAL KENTUCKY...

CITY           SKY/WX    TMP DP  RH WIND       PRES   REMARKS
MT STERLING*   CLOUDY    23  12  63 SE5       30.22F WCI  17
DANVILLE*      CLOUDY    25  16  68 E3        30.19F
RICHMOND*      CLOUDY    25  16  68 E5        30.18F WCI  19
LEXINGTON      CLOUDY    24  12  60 E3        30.20F
FRANKFORT      CLOUDY    24  12  60 E3        30.21F
$$

KYZ091>093-OHZ055-061-077-WVZ005-015-034-035-042-120900
...SOUTHERN OHIO/WEST VIRGINIA...

CITY           SKY/WX    TMP DP  RH WIND       PRES   REMARKS
COVINGTON      CLOUDY    20   8  60 E3        30.21F
COLUMBUS       PTCLDY     8   3  80 CALM      30.24F
DAYTON         CLOUDY    13   7  77 S5        30.22F WCI   5
WILMINGTON     CLOUDY     7   3  84 CALM      30.22F
HUNTINGTON       N/A     17   5  59 E3        30.25F
CHARLESTON       N/A     12   8  84 NE3       30.24F
PINEVILLE*       N/A     14   9  80 MISG      30.22S
BECKLEY          N/A     11   3  70 CALM      30.12F
$$

VAZ002-007-008-TNZ017-027-036-066-071-120900
...SOUTHWEST VIRGINIA/EAST TENNESSEE...

CITY           SKY/WX    TMP DP  RH WIND       PRES   REMARKS
BRISTOL        MOCLDY    26  20  77 CALM      30.16F
KNOXVILLE      CLOUDY    32  19  58 N5        30.18R WCI  27
OAK RIDGE      CLOUDY    32  17  54 CALM      30.19F
CROSSVILLE     CLOUDY    30  19  63 NE3       30.13F
NASHVILLE      CLOUDY    34  20  56 E5        30.17F WCI  30
$$

...KEY TO REMARKS...
VSB - VISIBILITY IN MILES
WCI - WIND CHILL INDEX
HX  - HEAT INDEX

$$




USA.gov is the U.S. government's official web portal to all federal, state and local government web resources and services.